Location: Hradec Kralove
(50.2170°N, 15.8330°E)
Time: 04:52:37
(UTC+02:00)

Explorer 7 - Pass Details

Date: 03 February 2023
Orbit: 478 x 657 km, 50.3° (Epoch: 25 March)

Event Time Altitude Azimuth Distance (km) Brightness Sun altitude
Rises 10:38:56 0° 185° (S) 2,639 11.4 20.3°
Reaches altitude 10° 10:42:43 10° 148° (SSE) 1,807 11.5 20.5°
Maximum altitude 10:43:49 11° 132° (SE) 1,764 10.8 20.6°
Drops below altitude 10° 10:44:56 10° 117° (ESE) 1,841 10.4 20.6°
Sets 10:48:55 0° 81° (E) 2,802 10.6 20.9°
